Andover, NJ

6:23 PM EST on November 20, 2017 (GMT -0500)
Andover

Weather History for K12N - September, 2012

Change the Weather History Date:

Friday, September 28, 2012

  Actual Average (KFWN) Record (KFWN)
Temperature  
Mean Temperature 57 °F -  
Max Temperature 60 °F 69 °F 88 °F (2014)
Min Temperature 54 °F 44 °F 28 °F (1957)
Degree Days  
Heating Degree Days 8    
Growing Degree Days 7 (Base 50)    
Moisture  
Dew Point 55 °F    
Average Humidity 94    
Maximum Humidity 97    
Minimum Humidity 90    
Precipitation  
Precipitation 0.55 in - - ()
Sea Level Pressure  
Sea Level Pressure 30.04 in    
Wind  
Wind Speed 3 mph (NE)    
Max Wind Speed 6 mph    
Max Gust Speed -    
Averages and records for this station are not official NWS values.
T = Trace of Precipitation, MM = Missing Value Source: NWS Daily Summary

Daily Weather History Graph

Daily Weather History Graph

Search for Another Location

Airport or City:

Trip Planner

Search our weather history database for the weather conditions in past years. The results will help you decide how hot, cold, wet, or windy it might be!

Date:

Astronomy

Sep. 28, 2012 Rise Set
Actual Time 6:52 AM EDT 6:45 PM EDT
Civil Twilight 6:25 AM EDT 7:12 PM EDT
Nautical Twilight 5:53 AM EDT 7:44 PM EDT
Astronomical Twilight 5:21 AM EDT 8:16 PM EDT
Moon 5:46 PM EDT (9/28) 5:20 AM EDT (9/28)
Length of Visible Light 12h 46m
Length of Day
11h 52m
Waxing Gibbous, 98% of the Moon is Illuminated
Sep 28
Waxing Gibbous
Sep 29
Full
Oct 8
Last Quarter
Oct 15
New
Oct 21
First Quarter

Hourly Weather History & Observations

Time (EDT) Temp. Dew Point Humidity Pressure Visibility Wind Dir Wind Speed Gust Speed Precip Events Conditions
12:54 AM 57.0 °F 55.0 °F 93% 30.13 in - NE 4.6 mph - 0.02 in   Unknown
1:00 AM - - N/A% - - North - - N/A   Unknown
1:54 AM 55.9 °F 54.0 °F 93% 30.15 in - Variable 3.5 mph - 0.03 in   Unknown
2:54 AM 55.9 °F 54.0 °F 93% 30.13 in - Calm Calm - 0.03 in   Unknown
3:54 AM 55.0 °F 54.0 °F 96% 30.12 in - NE 5.8 mph - 0.12 in   Unknown
4:54 AM 54.0 °F 53.1 °F 97% 30.14 in - Variable 3.5 mph - 0.08 in   Unknown
5:54 AM 54.0 °F 52.0 °F 93% 30.10 in - Variable 3.5 mph - 0.17 in   Unknown
6:54 AM 54.0 °F 53.1 °F 97% 30.09 in - NE 5.8 mph - 0.01 in   Unknown
7:54 AM 54.0 °F 53.1 °F 97% 30.09 in - Calm Calm - N/A   Unknown
9:54 AM 55.0 °F 54.0 °F 96% 30.07 in - Variable 3.5 mph - 0.09 in   Unknown
10:54 AM 55.9 °F 54.0 °F 93% 30.06 in - Calm Calm - N/A   Unknown
11:54 AM 57.0 °F 55.0 °F 93% 30.04 in - Variable 4.6 mph - N/A   Unknown
12:54 PM 59.0 °F 55.9 °F 90% 30.03 in - Calm Calm - N/A   Unknown
1:54 PM 59.0 °F 57.0 °F 93% 30.01 in - Calm Calm - N/A   Unknown
2:54 PM 59.0 °F 57.0 °F 93% 30.01 in - NE 3.5 mph - N/A   Unknown
3:54 PM 60.1 °F 57.0 °F 90% 30.00 in - Calm Calm - N/A   Unknown
4:54 PM 60.1 °F 57.9 °F 93% 29.98 in - NE 4.6 mph - N/A   Unknown
5:54 PM 59.0 °F 57.9 °F 96% 29.99 in - Calm Calm - N/A   Unknown
6:54 PM 57.0 °F 55.9 °F 96% 29.98 in - Variable 3.5 mph - N/A   Unknown
7:54 PM 57.0 °F 55.9 °F 96% 29.99 in - NE 4.6 mph - N/A   Unknown
8:54 PM 57.0 °F 55.9 °F 96% 29.99 in - Calm Calm - N/A   Unknown
9:54 PM 57.0 °F 55.0 °F 93% 29.99 in - Variable 4.6 mph - N/A   Unknown
10:54 PM 57.0 °F 55.0 °F 93% 29.97 in - NE 4.6 mph - N/A   Unknown
11:54 PM 55.9 °F 55.0 °F 97% 29.97 in - Variable 3.5 mph - N/A   Unknown